Tracking 30922 objects as of 2-Jul-2025
HD Live streaming from Space Station
objects crossing your sky now

USA 143

Track USA 143 now!
10-day predictions
USA 143 is classified as:


NORAD ID: 25724
Int'l Code: 1999-023A
Perigee: 1,104.9 km
Apogee: 5,154.6 km
Inclination: 28.2 °
Period: 153.6 minutes
Semi major axis: 9500 km
RCS: Unknown
Launch date: April 30, 1999
Source: United States (US)
Launch site: AIR FORCE EASTERN TEST RANGE (AFETR)
Your satellite tracking list
SSOT
Track 1 satellite(s)




NASA's NSSDC Master Catalog

Two Line Element Set (TLE):
1 25724U 99023A   25182.12864429 -.00000042  00000-0 -10808-2 0  9994
2 25724  28.2364 103.2556 2131244 284.9121  52.6228  9.37493292 39402
Source of the keplerian elements: McCants